Weather History for Fort Bragg, NC

Change the Weather History Date:

Monday, October 22, 2012

  Actual Average Record
Temperature  
Mean Temperature 59 °F -  
Max Temperature 75 °F 69 °F 82 °F (2001)
Min Temperature 43 °F 49 °F 41 °F (2008)
Degree Days  
Heating Degree Days 6    
Growing Degree Days 9 (Base 50)    
Moisture  
Dew Point 46 °F    
Average Humidity 72    
Maximum Humidity 98    
Minimum Humidity 32    
Precipitation  
Precipitation 0.00 in - - ()
Sea Level Pressure  
Sea Level Pressure 30.18 in    
Wind  
Wind Speed 1 mph (NNW)    
Max Wind Speed 6 mph    
Max Gust Speed -    
Visibility 10 miles    
Events      
Averages and records for this station are not official NWS values.
T = Trace of Precipitation, MM = Missing Value Source: NWS Daily Summary

Daily Weather History Graph

Daily Weather History Graph

Search for Another Location

Airport:

Trip Planner

Search our weather history database for the weather conditions in past years. The results will help you decide how hot, cold, wet, or windy it might be!

Date:

Astronomy

Oct. 22, 2012 Rise Set
Actual Time 7:28 AM EDT 6:31 PM EDT
Civil Twilight 7:02 AM EDT 6:57 PM EDT
Nautical Twilight 6:32 AM EDT 7:26 PM EDT
Astronomical Twilight 6:03 AM EDT 7:56 PM EDT
Moon 2:24 PM EDT (10/22) 12:28 AM EDT (10/22)
Length of Visible Light 11h 54m
Length of Day
11h 03m
First Quarter, 56% of the Moon is Illuminated
Oct 22
First Quarter
Oct 29
Full
Nov 6
Last Quarter
Nov 13
New
Nov 20
First Quarter

Hourly Weather History & Observations

Time (EDT) Temp. Dew Point Humidity Pressure Visibility Wind Dir Wind Speed Gust Speed Precip Events Conditions
12:55 AM 45.9 °F 44.2 °F 94% 30.16 in 10.0 mi Calm Calm - N/A   Clear
1:55 AM 46.0 °F 44.8 °F 95% 30.17 in 10.0 mi Calm Calm - N/A   Clear
2:55 AM 44.6 °F 43.5 °F 96% 30.17 in 10.0 mi Calm Calm - N/A   Clear
3:55 AM 43.9 °F 43.0 °F 97% 30.16 in 10.0 mi Calm Calm - N/A   Clear
4:55 AM 43.0 °F 42.1 °F 97% 30.17 in 10.0 mi Calm Calm - N/A   Clear
5:55 AM 43.5 °F 42.1 °F 95% 30.18 in 10.0 mi Calm Calm - N/A   Clear
6:55 AM 43.7 °F 42.3 °F 95% 30.20 in 10.0 mi Calm Calm - N/A   Clear
7:55 AM 43.0 °F 42.4 °F 98% 30.22 in 10.0 mi Calm Calm - N/A   Clear
8:55 AM 50.7 °F 45.3 °F 82% 30.24 in 10.0 mi Calm Calm - N/A   Clear
9:55 AM 58.5 °F 46.8 °F 65% 30.25 in 9.0 mi Calm Calm - N/A   Clear
10:55 AM 65.7 °F 44.6 °F 47% 30.24 in 10.0 mi NNW 3.5 mph - N/A   Clear
11:55 AM 68.4 °F 44.1 °F 41% 30.23 in 10.0 mi Variable 3.5 mph - N/A   Clear
12:55 PM 70.3 °F 46.4 °F 42% 30.22 in 10.0 mi Calm Calm - N/A   Clear
1:55 PM 72.5 °F 46.4 °F 39% 30.18 in 10.0 mi Variable 3.5 mph - N/A   Clear
2:55 PM 73.8 °F 44.4 °F 35% 30.16 in 10.0 mi NNW 5.8 mph - N/A   Clear
3:55 PM 75.2 °F 43.5 °F 32% 30.15 in 10.0 mi NW 3.5 mph - N/A   Clear
4:55 PM 73.9 °F 43.7 °F 34% 30.14 in 10.0 mi Calm Calm - N/A   Clear
5:55 PM 72.7 °F 44.2 °F 36% 30.15 in 10.0 mi Calm Calm - N/A   Clear
6:55 PM 63.7 °F 52.2 °F 66% 30.16 in 10.0 mi Calm Calm - N/A   Clear
7:55 PM 58.5 °F 52.9 °F 82% 30.17 in 10.0 mi Calm Calm - N/A   Clear
8:55 PM 55.8 °F 52.5 °F 89% 30.17 in 10.0 mi Calm Calm - N/A   Clear
9:55 PM 53.2 °F 51.1 °F 92% 30.18 in 10.0 mi Calm Calm - N/A   Clear
10:55 PM 51.8 °F 49.5 °F 92% 30.19 in 10.0 mi Calm Calm - N/A   Clear
11:55 PM 51.1 °F 48.7 °F 92% 30.18 in 10.0 mi Calm Calm - N/A   Clear